When you browse on this site, cookies collect data to enhance your experience and personalize the content and advertising you see.
Visit our Privacy Policy to learn more. By continuing to use the site, you agree to this use of cookies and data.
  • In Hungary
  • List of Countries
  • For 7 days
  • Water Temperature
  • Satellite Maps
  • Weather Map
  • News
  • Weather Widgets
  • user-avatar
    Login

    Hourly Weather Hannover

    Today, 19 April, Friday

    Time Temperature Precipitation Wind Pressure Humidity
    00:00 +10°C° 0 mm 3 mps 767 mmHg 74%
    01:00 +10°C° 0 mm 3 mps 767 mmHg 76%
    02:00 +9°C° 0 mm 3 mps 767 mmHg 76%
    03:00 +9°C° 0 mm 3 mps 767 mmHg 77%
    04:00 +9°C° 0 mm 3 mps 767 mmHg 77%
    05:00 +9°C° 0 mm 3 mps 767 mmHg 76%
    06:00 +10°C° 0 mm 3 mps 768 mmHg 74%
    07:00 +10°C° 0 mm 3 mps 768 mmHg 73%
    08:00 +12°C° 0 mm 3 mps 768 mmHg 69%
    09:00 +14°C° 0 mm 3 mps 768 mmHg 64%
    10:00 +17°C° 0 mm 3 mps 768 mmHg 60%
    11:00 +19°C° 0 mm 4 mps 768 mmHg 55%
    12:00 +20°C° 0 mm 4 mps 768 mmHg 50%
    13:00 +22°C° 0 mm 5 mps 768 mmHg 44%
    14:00 +22°C° 0 mm 5 mps 768 mmHg 45%
    15:00 +22°C° 0 mm 5 mps 767 mmHg 45%
    16:00 +22°C° 0 mm 5 mps 767 mmHg 45%
    17:00 +20°C° 0 mm 4 mps 767 mmHg 51%
    18:00 +19°C° 0 mm 3 mps 767 mmHg 56%
    19:00 +17°C° 0 mm 3 mps 767 mmHg 62%
    20:00 +16°C° 0 mm 3 mps 768 mmHg 64%
    21:00 +14°C° 0 mm 3 mps 768 mmHg 66%
    22:00 +12°C° 0 mm 3 mps 769 mmHg 68%
    23:00 +12°C° 0 mm 3 mps 769 mmHg 68%

    Tomorrow, 20 April, Saturday

    Time Temperature Precipitation Wind Pressure Humidity
    00:00 +11°C° 0 mm 3 mps 769 mmHg 67%
    01:00 +10°C° 0 mm 3 mps 769 mmHg 66%
    02:00 +9°C° 0 mm 3 mps 769 mmHg 65%
    03:00 +9°C° 0 mm 2 mps 769 mmHg 63%
    04:00 +8°C° 0 mm 2 mps 768 mmHg 61%
    05:00 +9°C° 0 mm 2 mps 768 mmHg 60%
    06:00 +9°C° 0 mm 2 mps 768 mmHg 59%
    07:00 +9°C° 0 mm 2 mps 768 mmHg 58%
    08:00 +13°C° 0 mm 2 mps 768 mmHg 53%
    09:00 +14°C° 0 mm 3 mps 768 mmHg 48%
    10:00 +17°C° 0 mm 3 mps 768 mmHg 43%
    11:00 +18°C° 0 mm 3 mps 768 mmHg 39%
    12:00 +19°C° 0 mm 3 mps 768 mmHg 36%
    13:00 +20°C° 0 mm 3 mps 768 mmHg 33%
    14:00 +20°C° 0 mm 3 mps 767 mmHg 33%
    15:00 +21°C° 0 mm 3 mps 767 mmHg 33%
    16:00 +21°C° 0 mm 3 mps 767 mmHg 32%
    17:00 +19°C° 0 mm 2 mps 766 mmHg 38%
    18:00 +17°C° 0 mm 2 mps 766 mmHg 44%
    19:00 +15°C° 0 mm 2 mps 766 mmHg 50%
    20:00 +14°C° 0 mm 2 mps 766 mmHg 53%
    21:00 +13°C° 0 mm 2 mps 766 mmHg 57%
    22:00 +10°C° 0 mm 2 mps 767 mmHg 61%
    23:00 +9°C° 0 mm 2 mps 766 mmHg 66%

    Day after tomorrow, 21 April, Sunday

    Time Temperature Precipitation Wind Pressure Humidity
    00:00 +9°C° 0 mm 2 mps 766 mmHg 71%
    01:00 +9°C° 0 mm 1 mps 766 mmHg 77%
    02:00 +8°C° 0 mm 1 mps 765 mmHg 79%
    03:00 +8°C° 0 mm 1 mps 765 mmHg 80%
    04:00 +7°C° 0 mm 1 mps 765 mmHg 82%
    05:00 +8°C° 0 mm 1 mps 765 mmHg 79%
    06:00 +9°C° 0 mm 1 mps 764 mmHg 76%
    07:00 +9°C° 0 mm 1 mps 764 mmHg 74%
    08:00 +12°C° 0 mm 2 mps 764 mmHg 67%
    09:00 +14°C° 0 mm 2 mps 763 mmHg 60%
    10:00 +16°C° 0 mm 2 mps 763 mmHg 54%
    11:00 +17°C° 0 mm 2 mps 763 mmHg 50%
    12:00 +18°C° 0 mm 3 mps 762 mmHg 46%
    13:00 +20°C° 0 mm 3 mps 762 mmHg 42%
    14:00 +20°C° 0 mm 3 mps 761 mmHg 42%
    15:00 +20°C° 0 mm 3 mps 761 mmHg 42%
    16:00 +20°C° 0 mm 3 mps 760 mmHg 42%
    17:00 +19°C° 0 mm 3 mps 760 mmHg 48%
    18:00 +17°C° 0 mm 3 mps 759 mmHg 54%
    19:00 +16°C° 0 mm 3 mps 759 mmHg 60%
    20:00 +14°C° 0 mm 3 mps 759 mmHg 61%
    21:00 +13°C° 0 mm 2 mps 759 mmHg 62%
    22:00 +12°C° 0 mm 2 mps 759 mmHg 63%
    23:00 +12°C° 0 mm 2 mps 759 mmHg 65%

    22 April, Monday

    Time Temperature Precipitation Wind Pressure Humidity
    00:00 +10°C° 0 mm 2 mps 759 mmHg 66%
    01:00 +9°C° 0 mm 2 mps 758 mmHg 68%
    02:00 +9°C° 0 mm 2 mps 758 mmHg 69%
    03:00 +8°C° 0 mm 2 mps 758 mmHg 71%
    04:00 +8°C° 0 mm 3 mps 757 mmHg 72%
    05:00 +8°C° 0 mm 3 mps 757 mmHg 71%
    06:00 +9°C° 0 mm 3 mps 757 mmHg 70%
    07:00 +8°C° 0 mm 4 mps 757 mmHg 69%
    08:00 +11°C° 0 mm 4 mps 756 mmHg 63%
    09:00 +13°C° 0 mm 5 mps 756 mmHg 58%
    10:00 +15°C° 0 mm 6 mps 756 mmHg 52%
    11:00 +16°C° 0 mm 6 mps 755 mmHg 50%
    12:00 +16°C° 0 mm 7 mps 755 mmHg 48%
    13:00 +17°C° 0 mm 7 mps 755 mmHg 46%
    14:00 +17°C° 0 mm 7 mps 754 mmHg 46%
    15:00 +16°C° 0 mm 7 mps 754 mmHg 45%
    16:00 +16°C° 0 mm 7 mps 753 mmHg 44%
    17:00 +15°C° 0 mm 7 mps 753 mmHg 49%
    18:00 +14°C° 0 mm 6 mps 753 mmHg 55%
    19:00 +13°C° 0 mm 5 mps 752 mmHg 61%
    20:00 +12°C° 0 mm 5 mps 752 mmHg 63%
    21:00 +12°C° 0 mm 5 mps 752 mmHg 66%
    22:00 +10°C° 0 mm 6 mps 752 mmHg 69%
    23:00 +10°C° 0 mm 5 mps 751 mmHg 70%

    23 April, Tuesday

    Time Temperature Precipitation Wind Pressure Humidity
    00:00 +9°C° 0 mm 5 mps 750 mmHg 71%
    01:00 +9°C° 0 mm 5 mps 750 mmHg 72%
    02:00 +9°C° 0 mm 5 mps 749 mmHg 77%
    03:00 +9°C° 0 mm 6 mps 748 mmHg 81%
    04:00 +9°C° 0 mm 6 mps 748 mmHg 85%
    05:00 +9°C° 0 mm 6 mps 747 mmHg 84%
    06:00 +10°C° 0 mm 6 mps 747 mmHg 84%
    07:00 +10°C° 0 mm 6 mps 746 mmHg 83%
    08:00 +12°C° 0 mm 5 mps 746 mmHg 78%
    09:00 +14°C° 0 mm 5 mps 746 mmHg 73%
    10:00 +15°C° 0 mm 5 mps 745 mmHg 69%
    11:00 +17°C° 0 mm 5 mps 745 mmHg 64%
    12:00 +19°C° 0 mm 4 mps 745 mmHg 58%
    13:00 +21°C° 0 mm 4 mps 745 mmHg 53%
    14:00 +21°C° 0 mm 4 mps 745 mmHg 53%
    15:00 +22°C° 0 mm 4 mps 745 mmHg 53%
    16:00 +22°C° 0 mm 4 mps 745 mmHg 53%
    17:00 +21°C° 0.2 mm 4 mps 745 mmHg 60%
    18:00 +19°C° 0.2 mm 4 mps 745 mmHg 67%
    19:00 +17°C° 0.2 mm 5 mps 745 mmHg 74%
    20:00 +17°C° 0 mm 4 mps 745 mmHg 76%
    21:00 +15°C° 0 mm 4 mps 746 mmHg 78%
    22:00 +13°C° 0 mm 4 mps 746 mmHg 80%
    23:00 +13°C° 0 mm 3 mps 746 mmHg 82%

    24 April, Wednesday

    Time Temperature Precipitation Wind Pressure Humidity
    00:00 +12°C° 0 mm 3 mps 746 mmHg 83%
    01:00 +13°C° 0 mm 2 mps 746 mmHg 85%
    02:00 +12°C° 0 mm 2 mps 746 mmHg 87%
    03:00 +12°C° 0 mm 2 mps 747 mmHg 88%
    04:00 +12°C° 0 mm 2 mps 747 mmHg 90%
    05:00 +13°C° 0 mm 2 mps 747 mmHg 87%
    06:00 +13°C° 0 mm 2 mps 747 mmHg 85%
    07:00 +14°C° 0 mm 2 mps 748 mmHg 83%
    08:00 +17°C° 0 mm 2 mps 748 mmHg 76%
    09:00 +19°C° 0 mm 3 mps 748 mmHg 69%
    10:00 +21°C° 0 mm 3 mps 748 mmHg 61%
    11:00 +22°C° 0 mm 3 mps 748 mmHg 57%
    12:00 +25°C° 0 mm 3 mps 749 mmHg 52%
    13:00 +26°C° 0 mm 3 mps 749 mmHg 47%
    14:00 +26°C° 0 mm 3 mps 749 mmHg 45%
    15:00 +26°C° 0 mm 2 mps 749 mmHg 43%
    16:00 +27°C° 0 mm 2 mps 749 mmHg 42%
    17:00 +25°C° 0 mm 2 mps 749 mmHg 47%
    18:00 +24°C° 0 mm 2 mps 749 mmHg 53%
    19:00 +21°C° 0 mm 2 mps 749 mmHg 58%
    20:00 +20°C° 0 mm 2 mps 748 mmHg 62%
    21:00 +19°C° 0 mm 3 mps 748 mmHg 66%
    22:00 +18°C° 0 mm 4 mps 748 mmHg 70%
    23:00 +18°C° 0 mm 3 mps 749 mmHg 73%
    Show more